Terminal Aerodrome Forecast
Issued by NWS Wilmington, OH

Home | Current Version | Previous Version | Text Only | Print | Product List | Glossary On
Versions: 1 2 3 4 5 6 7 8 9 10 11 12 13 14 15 16 17 18 19
000
FTUS41 KILN 061500 AAA
TAFDAY
TAF AMD
KDAY 061502Z 0615/0712 25005KT P6SM FEW060
     FM061700 25007KT P6SM SCT070
     FM070000 16005KT P6SM SKC=

USA.gov is the U.S. government's official web portal to all federal, state and local government web resources and services.